| time (UTC) | temp C | wind direction | speed KPH | gust KPH | rain 1hr cm | rain 24hr cm | rain mn cm | humidity % | barometer mb |
| 20260504172328 | 26 | 0.0 | 0.0 | 0.00 | 0.00 | 0.00 | 22 | 1011.0 | |
| 20260504170712 | 26 | 0.0 | 0.0 | 0.00 | 0.00 | 0.00 | 21 | 1011.0 | |
| 20260504150113 | 32 | 0.0 | 0.0 | 0.00 | 0.00 | 0.00 | 15 | 1011.0 | |
| 20260504140846 | 33 | 0.0 | 0.0 | 0.00 | 0.00 | 0.00 | 13 | 1012.0 | |
| 20260504100609 | 31 | 0.0 | 0.0 | 0.00 | 0.00 | 0.00 | 18 | 1014.0 | |
| 20260504081308 | 27 | 0.0 | 0.0 | 0.00 | 0.00 | 0.00 | 22 | 1015.0 | |
| 20260504045844 | 15 | 0.0 | 0.0 | 0.00 | 0.00 | 0.00 | 45 | 1016.0 | |
| 20260504044041 | 13 | 0.0 | 0.0 | 0.00 | 0.00 | 0.00 | 50 | 1016.0 | |
| 20260504042210 | 12 | 0.0 | 0.0 | 0.00 | 0.00 | 0.00 | 56 | 1016.0 | |
| 20260504040456 | 12 | 0.0 | 0.0 | 0.00 | 0.00 | 0.00 | 59 | 1016.0 | |
| 20260504034756 | 11 | 0.0 | 0.0 | 0.00 | 0.00 | 0.00 | 60 | 1016.0 | |
| 20260504032818 | 11 | 0.0 | 0.0 | 0.00 | 0.00 | 0.00 | 58 | 1016.0 | |
| 20260504031220 | 12 | 0.0 | 0.0 | 0.00 | 0.00 | 0.00 | 57 | 1016.0 | |
| 20260504025348 | 12 | 0.0 | 0.0 | 0.00 | 0.00 | 0.00 | 53 | 1016.0 | |
| 20260504023502 | 13 | 0.0 | 0.0 | 0.00 | 0.00 | 0.00 | 49 | 1016.0 | |
| 20260504021736 | 15 | 0.0 | 0.0 | 0.00 | 0.00 | 0.00 | 44 | 1016.0 | |
| 20260504015803 | 15 | 0.0 | 0.0 | 0.00 | 0.00 | 0.00 | 45 | 1016.0 | |
| 20260504013947 | 15 | 0.0 | 0.0 | 0.00 | 0.00 | 0.00 | 45 | 1016.0 | |
| 20260504012056 | 15 | 0.0 | 0.0 | 0.00 | 0.00 | 0.00 | 44 | 1016.0 | |
| 20260504010444 | 15 | 0.0 | 0.0 | 0.00 | 0.00 | 0.00 | 44 | 1016.0 | |
| 20260504004510 | 15 | 0.0 | 0.0 | 0.00 | 0.00 | 0.00 | 45 | 1016.0 | |
| 20260504002527 | 15 | 0.0 | 0.0 | 0.00 | 0.00 | 0.00 | 45 | 1016.0 | |
| 20260504000756 | 15 | 0.0 | 0.0 | 0.00 | 0.00 | 0.00 | 45 | 1016.0 | |
| 20260503234822 | 15 | 0.0 | 0.0 | 0.00 | 0.00 | 0.00 | 44 | 1016.0 | |
| 20260503233108 | 15 | 0.0 | 0.0 | 0.00 | 0.00 | 0.00 | 43 | 1016.0 | |
| 20260503231350 | 15 | 0.0 | 0.0 | 0.00 | 0.00 | 0.00 | 43 | 1016.0 | |
| 20260503225634 | 16 | 0.0 | 0.0 | 0.00 | 0.00 | 0.00 | 42 | 1016.0 | |
| 20260503223707 | 16 | 0.0 | 0.0 | 0.00 | 0.00 | 0.00 | 42 | 1016.0 | |
| 20260503222055 | 16 | 0.0 | 0.0 | 0.00 | 0.00 | 0.00 | 42 | 1016.0 | |
| 20260503220226 | 16 | 0.0 | 0.0 | 0.00 | 0.00 | 0.00 | 41 | 1016.0 | |
| 20260503214531 | 16 | 0.0 | 0.0 | 0.00 | 0.00 | 0.00 | 40 | 1016.0 | |
| 20260503212721 | 16 | 0.0 | 0.0 | 0.00 | 0.00 | 0.00 | 40 | 1016.0 | |
| 20260503210952 | 16 | 0.0 | 0.0 | 0.00 | 0.00 | 0.00 | 39 | 1016.0 | |
| 20260503205326 | 17 | 0.0 | 0.0 | 0.00 | 0.00 | 0.00 | 38 | 1016.0 | |
| 20260503203527 | 17 | 0.0 | 0.0 | 0.00 | 0.00 | 0.00 | 36 | 1016.0 | |
| 20260503201721 | 18 | 0.0 | 0.0 | 0.00 | 0.00 | 0.00 | 34 | 1016.0 | |
| 20260503200009 | 18 | 0.0 | 0.0 | 0.00 | 0.00 | 0.00 | 33 | 1016.0 | |
| 20260503194218 | 19 | 0.0 | 0.0 | 0.00 | 0.00 | 0.00 | 31 | 1016.0 | |
| 20260503192445 | 19 | 0.0 | 0.0 | 0.00 | 0.00 | 0.00 | 30 | 1016.0 | |
| 20260503190844 | 20 | 0.0 | 0.0 | 0.00 | 0.00 | 0.00 | 29 | 1015.0 | |
| 20260503184857 | 20 | 0.0 | 0.0 | 0.00 | 0.00 | 0.00 | 28 | 1015.0 | |
| 20260503183034 | 21 | 0.0 | 0.0 | 0.00 | 0.00 | 0.00 | 27 | 1015.0 | |
| 20260503181154 | 22 | 0.0 | 0.0 | 0.00 | 0.00 | 0.00 | 26 | 1015.0 | |
| 20260503175355 | 22 | 0.0 | 0.0 | 0.00 | 0.00 | 0.00 | 24 | 1015.0 |